Regional Weather Roundup
Issued by NWS Goodland, KS

Home | Current Version | Previous Version | Graphics & Text | Print | Product List | Glossary On
Versions: 1 2 3 4 5 6 7 8 9 10 11 12 13 14 15 16 17 18 19 20 21 22 23 24 25 26 27 28 29 30 31 32 33 34 35 36 37 38 39 40 41 42 43 44 45 46 47 48 49 50
000
ASUS43 KGLD 290359
RWRGLD

GOODLAND FORECAST AREA HOURLY WEATHER ROUNDUP
NATIONAL WEATHER SERVICE GOODLAND KS
1000 PM MDT SAT MAR 28 2015

...OFFICIAL OBSERVATIONS...

CITY           SKY/WX    TMP DP  RH WIND       PRES   REMARKS
GOODLAND KS    CLEAR     65  26  23 S17       29.86F
HILL CITY KS   CLEAR     60  40  47 S15G24    29.85F
IMPERIAL NEB   PTCLDY    69  23  17 SW15      29.79R
MCCOOK NEB     PTCLDY    63  38  39 S14G20    29.80S
AKRON CO       MOCLDY    66  23  19 W18G29    29.91R
BURLINGTON CO  CLEAR     57  26  30 S15       29.90S
LIMON CO       CLEAR     46  28  49 NW5       29.98R
$$

...UNOFFICIAL OBSERVATIONS...

CITY           SKY/WX    TMP DP  RH WIND       PRES   REMARKS
COLBY KS       CLEAR     61  39  44 SE18G24   29.86F
LENORA KS        N/A     59  32  36 MISG        N/A
NORTON KS      CLEAR     57  36  44 SE12G22   29.82F
YUMA CO          N/A     58  28  32 SW10        N/A
$$



USA.gov is the U.S. government's official web portal to all federal, state and local government web resources and services.